This is the latest recevied weather packets stored in our database for station/object N7CEE-2. If no packets are shown the sender has not sent any weather packets the latest 10 day(s).
| Time | Temp. | Humidity | Pressure | Rain* | Wind** | Luminosity | Snow |
|---|---|---|---|---|---|---|---|
| 1777060318 | 28.33° C | 18% | 1012.1 hPa | 0 mm | - | 970 W/m² | - |
| 1777060015 | 28.33° C | 18% | 1012.1 hPa | 0 mm | - | 972 W/m² | - |
| 1777059710 | 27.78° C | 18% | 1012.2 hPa | 0 mm | - | 975 W/m² | - |
| 1777059408 | 28.33° C | 18% | 1012.4 hPa | 0 mm | - | 971 W/m² | - |
| 1777059104 | 27.78° C | 18% | 1012.4 hPa | 0 mm | - | 981 W/m² | - |
| 1777058799 | 28.89° C | 18% | 1012.3 hPa | 0 mm | - | 889 W/m² | - |
| 1777058494 | 28.33° C | 19% | 1012.5 hPa | 0 mm | - | 964 W/m² | - |
| 1777058192 | 27.78° C | 18% | 1012.5 hPa | 0 mm | - | 963 W/m² | - |
| 1777057887 | 27.78° C | 18% | 1012.9 hPa | 0 mm | - | 973 W/m² | - |
| 1777057582 | 27.22° C | 18% | 1012.8 hPa | 0 mm | - | 967 W/m² | - |
| 1777057278 | 28.33° C | 18% | 1012.8 hPa | 0 mm | - | 978 W/m² | - |
| 1777056974 | 27.78° C | 18% | 1013 hPa | 0 mm | - | 978 W/m² | - |
| 1777056673 | 27.78° C | 19% | 1013 hPa | 0 mm | - | 983 W/m² | - |
| 1777056369 | 27.78° C | 19% | 1013 hPa | 0 mm | - | 976 W/m² | - |
| 1777056065 | 27.78° C | 19% | 1012.9 hPa | 0 mm | - | 950 W/m² | - |
| 1777055761 | 27.22° C | 20% | 1013 hPa | 0 mm | - | 929 W/m² | - |
| 1777055451 | 27.78° C | 20% | 1013 hPa | 0 mm | - | 888 W/m² | - |
| 1777055145 | 28.89° C | 20% | 1013.1 hPa | 0 mm | - | 925 W/m² | - |
| 1777054840 | 27.22° C | 20% | 1013.3 hPa | 0 mm | - | 873 W/m² | - |
| 1777054537 | 27.22° C | 20% | 1013.3 hPa | 0 mm | - | 841 W/m² | - |
| 1777054234 | 27.22° C | 20% | 1013.5 hPa | 0 mm | - | 925 W/m² | - |
| 1777053932 | 26.67° C | 20% | 1013.5 hPa | 0 mm | - | 876 W/m² | - |
| 1777053627 | 26.67° C | 21% | 1013.8 hPa | 0 mm | - | 827 W/m² | - |
| 1777053321 | 26.67° C | 21% | 1013.7 hPa | 0 mm | - | 924 W/m² | - |
| 1777053018 | 26.67° C | 21% | 1013.6 hPa | 0 mm | - | 835 W/m² | - |
* Rain latest hour (hover to see other rain measurements)
** Current wind speed in m/s (hover to see current wind gust speed)